| time (UTC) | temp C | wind direction | speed KPH | gust KPH | rain 1hr cm | rain 24hr cm | rain mn cm | humidity % | barometer mb |
| 20260507104019 | 2 | 178 | 1.6 | 3.2 | 0.00 | 0.00 | 0.00 | 91 | 1015.4 |
| 20260507103520 | 2 | 190 | 0.0 | 3.2 | 0.00 | 0.00 | 0.00 | 91 | 1015.3 |
| 20260507103038 | 2 | 0 | 0.0 | 3.2 | 0.00 | 0.00 | 0.00 | 91 | 1015.4 |
| 20260507102518 | 2 | 178 | 0.0 | 3.2 | 0.00 | 0.00 | 0.00 | 91 | 1015.4 |
| 20260507102019 | 2 | 178 | 1.6 | 3.2 | 0.00 | 0.00 | 0.00 | 91 | 1015.4 |
| 20260507101538 | 2 | 171 | 1.6 | 3.2 | 0.00 | 0.00 | 0.00 | 91 | 1015.4 |
| 20260507101023 | 2 | 178 | 0.0 | 1.6 | 0.00 | 0.00 | 0.00 | 91 | 1015.3 |
| 20260507100521 | 2 | 137 | 0.0 | 1.6 | 0.00 | 0.00 | 0.00 | 91 | 1015.3 |
| 20260507100036 | 2 | 0 | 0.0 | 3.2 | 0.00 | 0.00 | 0.00 | 91 | 1015.3 |
| 20260507095519 | 2 | 0 | 0.0 | 3.2 | 0.00 | 0.00 | 0.00 | 91 | 1015.4 |
| 20260507095019 | 2 | 153 | 0.0 | 3.2 | 0.00 | 0.00 | 0.00 | 91 | 1015.4 |
| 20260507094540 | 2 | 0 | 0.0 | 3.2 | 0.00 | 0.00 | 0.00 | 91 | 1015.3 |
| 20260507094018 | 2 | 146 | 0.0 | 3.2 | 0.00 | 0.00 | 0.00 | 90 | 1015.4 |
| 20260507093518 | 2 | 0 | 0.0 | 1.6 | 0.00 | 0.00 | 0.00 | 90 | 1015.3 |
| 20260507093042 | 2 | 221 | 0.0 | 1.6 | 0.00 | 0.00 | 0.00 | 90 | 1015.3 |
| 20260507092519 | 2 | 0 | 0.0 | 1.6 | 0.00 | 0.00 | 0.00 | 90 | 1015.3 |
| 20260507092019 | 2 | 0 | 0.0 | 1.6 | 0.00 | 0.00 | 0.00 | 90 | 1015.3 |
| 20260507091539 | 2 | 196 | 0.0 | 1.6 | 0.00 | 0.00 | 0.00 | 90 | 1015.1 |
| 20260507091019 | 3 | 0 | 0.0 | 3.2 | 0.00 | 0.00 | 0.00 | 90 | 1015.2 |
| 20260507090518 | 3 | 0 | 0.0 | 3.2 | 0.00 | 0.00 | 0.00 | 90 | 1015.1 |
| 20260507090037 | 3 | 178 | 0.0 | 1.6 | 0.00 | 0.00 | 0.00 | 90 | 1015.1 |
| 20260507085519 | 3 | 0 | 0.0 | 1.6 | 0.00 | 0.03 | 0.00 | 90 | 1015.0 |
| 20260507085019 | 3 | 0 | 0.0 | 1.6 | 0.00 | 0.03 | 0.00 | 90 | 1015.0 |
| 20260507084539 | 3 | 0 | 0.0 | 1.6 | 0.00 | 0.03 | 0.00 | 90 | 1015.0 |
| 20260507084023 | 3 | 0 | 0.0 | 1.6 | 0.00 | 0.03 | 0.00 | 90 | 1015.0 |
| 20260507083519 | 3 | 0 | 0.0 | 1.6 | 0.00 | 0.03 | 0.00 | 89 | 1015.0 |
| 20260507083039 | 3 | 0 | 0.0 | 1.6 | 0.00 | 0.03 | 0.00 | 90 | 1014.8 |
| 20260507082519 | 3 | 153 | 0.0 | 1.6 | 0.00 | 0.03 | 0.00 | 89 | 1014.9 |
| 20260507082018 | 3 | 0 | 0.0 | 1.6 | 0.00 | 0.03 | 0.00 | 89 | 1014.8 |
| 20260507081538 | 3 | 153 | 0.0 | 1.6 | 0.00 | 0.03 | 0.00 | 89 | 1014.7 |
| 20260507081019 | 3 | 0 | 0.0 | 1.6 | 0.00 | 0.03 | 0.00 | 89 | 1014.8 |
| 20260507080524 | 3 | 0 | 0.0 | 1.6 | 0.00 | 0.03 | 0.00 | 89 | 1014.7 |
| 20260507080036 | 3 | 0 | 0.0 | 3.2 | 0.00 | 0.03 | 0.00 | 89 | 1014.8 |
| 20260507075520 | 3 | 178 | 0.0 | 3.2 | 0.00 | 0.23 | 0.00 | 89 | 1014.7 |
| 20260507075020 | 3 | 178 | 0.0 | 1.6 | 0.00 | 0.23 | 0.00 | 89 | 1014.8 |
| 20260507074536 | 3 | 0 | 0.0 | 1.6 | 0.00 | 0.23 | 0.00 | 89 | 1014.8 |
| 20260507074019 | 3 | 221 | 0.0 | 1.6 | 0.00 | 0.23 | 0.00 | 89 | 1014.9 |
| 20260507073521 | 3 | 0 | 0.0 | 3.2 | 0.00 | 0.23 | 0.00 | 89 | 1014.8 |
| 20260507073036 | 3 | 137 | 0.0 | 3.2 | 0.00 | 0.23 | 0.00 | 89 | 1014.7 |
| 20260507072519 | 3 | 0 | 0.0 | 1.6 | 0.00 | 0.23 | 0.00 | 89 | 1014.9 |
| 20260507072018 | 3 | 0 | 0.0 | 1.6 | 0.00 | 0.23 | 0.00 | 89 | 1014.9 |
| 20260507071536 | 3 | 0 | 0.0 | 1.6 | 0.00 | 0.23 | 0.00 | 88 | 1014.9 |
| 20260507071018 | 4 | 153 | 0.0 | 3.2 | 0.00 | 0.23 | 0.00 | 88 | 1014.9 |
| 20260507070519 | 4 | 0 | 0.0 | 3.2 | 0.00 | 0.23 | 0.00 | 88 | 1014.8 |
| 20260507070035 | 4 | 165 | 0.0 | 3.2 | 0.00 | 0.23 | 0.00 | 88 | 1014.8 |
| 20260507065518 | 4 | 0 | 0.0 | 1.6 | 0.00 | 0.38 | 0.00 | 88 | 1014.9 |
| 20260507065018 | 4 | 0 | 0.0 | 1.6 | 0.00 | 0.38 | 0.00 | 88 | 1015.0 |
| 20260507064535 | 4 | 0 | 0.0 | 1.6 | 0.00 | 0.38 | 0.00 | 87 | 1015.0 |
| 20260507064018 | 4 | 0 | 0.0 | 1.6 | 0.00 | 0.38 | 0.00 | 88 | 1015.1 |
| 20260507063520 | 4 | 0 | 0.0 | 0.0 | 0.00 | 0.38 | 0.00 | 88 | 1015.1 |
| 20260507063037 | 5 | 0 | 0.0 | 1.6 | 0.00 | 0.38 | 0.00 | 87 | 1015.1 |
| 20260507062519 | 5 | 0 | 0.0 | 1.6 | 0.00 | 0.38 | 0.00 | 87 | 1015.0 |
| 20260507062019 | 5 | 34 | 0.0 | 1.6 | 0.00 | 0.38 | 0.00 | 87 | 1015.1 |
| 20260507061537 | 5 | 0 | 0.0 | 0.0 | 0.00 | 0.38 | 0.00 | 87 | 1015.0 |
| 20260507061018 | 5 | 0 | 0.0 | 1.6 | 0.00 | 0.38 | 0.00 | 87 | 1015.1 |
| 20260507060519 | 5 | 0 | 0.0 | 1.6 | 0.00 | 0.38 | 0.00 | 88 | 1015.0 |
| 20260507060037 | 5 | 137 | 0.0 | 1.6 | 0.00 | 0.38 | 0.00 | 88 | 1015.1 |
| 20260507055519 | 5 | 0 | 0.0 | 1.6 | 0.00 | 0.94 | 0.00 | 87 | 1015.1 |
| 20260507055017 | 5 | 0 | 0.0 | 1.6 | 0.00 | 0.94 | 0.00 | 87 | 1015.2 |
| 20260507054540 | 5 | 178 | 0.0 | 1.6 | 0.00 | 0.94 | 0.00 | 88 | 1015.2 |
| 20260507054022 | 6 | 0 | 0.0 | 1.6 | 0.00 | 0.94 | 0.00 | 88 | 1015.2 |
| 20260507053519 | 6 | 0 | 0.0 | 1.6 | 0.00 | 0.94 | 0.00 | 88 | 1015.2 |
| 20260507053036 | 6 | 0 | 0.0 | 1.6 | 0.00 | 0.94 | 0.00 | 88 | 1015.2 |
| 20260507052519 | 6 | 0 | 0.0 | 3.2 | 0.00 | 0.94 | 0.00 | 88 | 1015.2 |
| 20260507052021 | 6 | 0 | 0.0 | 3.2 | 0.00 | 0.94 | 0.00 | 88 | 1015.2 |
| 20260507051535 | 6 | 0 | 0.0 | 3.2 | 0.00 | 0.94 | 0.00 | 88 | 1015.3 |
| 20260507051019 | 6 | 0 | 0.0 | 1.6 | 0.00 | 0.94 | 0.00 | 88 | 1015.4 |
| 20260507050520 | 6 | 0 | 0.0 | 3.2 | 0.00 | 0.94 | 0.00 | 88 | 1015.5 |
| 20260507050042 | 6 | 0 | 0.0 | 3.2 | 0.00 | 0.94 | 0.00 | 88 | 1015.5 |
| 20260507045520 | 6 | 9 | 0.0 | 3.2 | 0.00 | 1.47 | 0.00 | 88 | 1015.5 |
| 20260507045018 | 6 | 44 | 0.0 | 3.2 | 0.00 | 1.47 | 0.00 | 87 | 1015.5 |
| 20260507044538 | 6 | 178 | 0.0 | 1.6 | 0.00 | 1.47 | 0.00 | 87 | 1015.4 |
| 20260507044019 | 6 | 178 | 0.0 | 3.2 | 0.00 | 1.47 | 0.00 | 87 | 1015.4 |
| 20260507043523 | 6 | 0 | 0.0 | 3.2 | 0.00 | 1.47 | 0.00 | 87 | 1015.3 |
| 20260507043035 | 6 | 158 | 0.0 | 1.6 | 0.00 | 1.47 | 0.00 | 87 | 1015.2 |
| 20260507042539 | 6 | 0 | 0.0 | 1.6 | 0.00 | 1.47 | 0.00 | 87 | 1015.3 |
| 20260507042018 | 6 | 120 | 0.0 | 1.6 | 0.00 | 1.47 | 0.00 | 86 | 1015.3 |
| 20260507041549 | 6 | 0 | 0.0 | 1.6 | 0.00 | 1.47 | 0.00 | 86 | 1015.3 |
| 20260507041019 | 6 | 0 | 0.0 | 3.2 | 0.00 | 1.47 | 0.00 | 86 | 1015.3 |
| 20260507040522 | 6 | 0 | 0.0 | 3.2 | 0.00 | 1.47 | 0.00 | 86 | 1015.1 |
| 20260507040035 | 6 | 169 | 1.6 | 3.2 | 0.00 | 1.47 | 0.00 | 85 | 1015.1 |
| 20260507035519 | 6 | 120 | 0.0 | 3.2 | 0.00 | 1.63 | 1.47 | 85 | 1015.1 |
| 20260507035020 | 6 | 126 | 0.0 | 3.2 | 0.00 | 1.63 | 1.47 | 85 | 1015.1 |
| 20260507034539 | 7 | 162 | 0.0 | 3.2 | 0.00 | 1.63 | 1.47 | 85 | 1015.1 |
| 20260507034019 | 7 | 162 | 0.0 | 3.2 | 0.00 | 1.63 | 1.47 | 84 | 1015.1 |
| 20260507033519 | 7 | 0 | 1.6 | 3.2 | 0.00 | 1.63 | 1.47 | 84 | 1015.0 |
| 20260507033037 | 7 | 162 | 0.0 | 3.2 | 0.00 | 1.63 | 1.47 | 84 | 1015.1 |
| 20260507032519 | 7 | 146 | 0.0 | 3.2 | 0.00 | 1.63 | 1.47 | 84 | 1015.1 |
| 20260507032019 | 7 | 162 | 0.0 | 3.2 | 0.00 | 1.63 | 1.47 | 84 | 1015.1 |
| 20260507031535 | 7 | 162 | 0.0 | 3.2 | 0.00 | 1.63 | 1.47 | 84 | 1015.2 |
| 20260507031019 | 7 | 169 | 1.6 | 3.2 | 0.00 | 1.63 | 1.47 | 84 | 1015.3 |
| 20260507030520 | 7 | 137 | 0.0 | 3.2 | 0.00 | 1.63 | 1.47 | 83 | 1015.3 |
| 20260507030035 | 7 | 146 | 0.0 | 1.6 | 0.00 | 1.63 | 1.47 | 83 | 1015.3 |
| 20260507025522 | 7 | 178 | 0.0 | 1.6 | 0.00 | 1.98 | 1.47 | 83 | 1015.4 |
| 20260507025019 | 8 | 0 | 0.0 | 1.6 | 0.00 | 1.98 | 1.47 | 83 | 1015.3 |
| 20260507024534 | 8 | 0 | 0.0 | 1.6 | 0.00 | 1.98 | 1.47 | 83 | 1015.3 |
| 20260507024021 | 8 | 0 | 0.0 | 1.6 | 0.00 | 1.98 | 1.47 | 83 | 1015.3 |
| 20260507023520 | 8 | 0 | 0.0 | 1.6 | 0.00 | 1.98 | 1.47 | 83 | 1015.4 |
| 20260507023037 | 8 | 0 | 0.0 | 1.6 | 0.00 | 1.98 | 1.47 | 82 | 1015.3 |
| 20260507022519 | 8 | 0 | 0.0 | 3.2 | 0.00 | 1.98 | 1.47 | 82 | 1015.4 |
| 20260507022019 | 8 | 153 | 0.0 | 3.2 | 0.00 | 1.98 | 1.47 | 82 | 1015.3 |
| 20260507021535 | 8 | 193 | 0.0 | 3.2 | 0.00 | 1.98 | 1.47 | 81 | 1015.3 |
| 20260507021018 | 8 | 0 | 0.0 | 3.2 | 0.00 | 1.98 | 1.47 | 81 | 1015.1 |
| 20260507020519 | 8 | 0 | 0.0 | 3.2 | 0.00 | 1.98 | 1.47 | 80 | 1015.0 |
| 20260507020035 | 9 | 178 | 0.0 | 3.2 | 0.00 | 1.98 | 1.47 | 80 | 1015.0 |
| 20260507015518 | 9 | 162 | 0.0 | 3.2 | 0.00 | 2.29 | 1.47 | 80 | 1015.0 |
| 20260507015022 | 9 | 178 | 0.0 | 3.2 | 0.00 | 2.29 | 1.47 | 79 | 1015.0 |
| 20260507014548 | 9 | 153 | 0.0 | 3.2 | 0.00 | 2.29 | 1.47 | 79 | 1014.7 |
| 20260507014019 | 9 | 137 | 0.0 | 3.2 | 0.00 | 2.29 | 1.47 | 78 | 1014.6 |
| 20260507013519 | 9 | 178 | 0.0 | 3.2 | 0.00 | 2.29 | 1.47 | 76 | 1014.6 |
| 20260507013044 | 10 | 137 | 0.0 | 1.6 | 0.00 | 2.29 | 1.47 | 75 | 1014.5 |
| 20260507012520 | 10 | 0 | 0.0 | 1.6 | 0.00 | 2.29 | 1.47 | 74 | 1014.5 |
| 20260507012025 | 10 | 0 | 0.0 | 1.6 | 0.00 | 2.29 | 1.47 | 74 | 1014.5 |
| 20260507011538 | 10 | 0 | 0.0 | 1.6 | 0.00 | 2.29 | 1.47 | 73 | 1014.5 |
| 20260507011023 | 10 | 0 | 0.0 | 1.6 | 0.00 | 2.29 | 1.47 | 72 | 1014.5 |
| 20260507010522 | 10 | 153 | 0.0 | 1.6 | 0.00 | 2.29 | 1.47 | 72 | 1014.6 |
| 20260507010037 | 10 | 0 | 0.0 | 1.6 | 0.00 | 2.29 | 1.47 | 71 | 1014.5 |
| 20260507005523 | 11 | 137 | 0.0 | 1.6 | 0.00 | 2.46 | 1.47 | 70 | 1014.5 |
| 20260507005021 | 11 | 0 | 0.0 | 1.6 | 0.00 | 2.46 | 1.47 | 69 | 1014.5 |
| 20260507004540 | 11 | 0 | 0.0 | 3.2 | 0.00 | 2.46 | 1.47 | 68 | 1014.4 |
| 20260507004023 | 11 | 0 | 0.0 | 3.2 | 0.00 | 2.46 | 1.47 | 67 | 1014.3 |
| 20260507003523 | 11 | 0 | 0.0 | 3.2 | 0.00 | 2.46 | 1.47 | 66 | 1014.3 |
| 20260507003039 | 11 | 0 | 0.0 | 3.2 | 0.00 | 2.46 | 1.47 | 65 | 1014.2 |
| 20260507002518 | 12 | 196 | 0.0 | 3.2 | 0.00 | 2.46 | 1.47 | 64 | 1014.2 |
| 20260507002022 | 12 | 178 | 0.0 | 3.2 | 0.00 | 2.46 | 1.47 | 63 | 1014.1 |
| 20260507001547 | 12 | 165 | 0.0 | 3.2 | 0.00 | 2.46 | 1.47 | 62 | 1013.9 |
| 20260507001020 | 12 | 0 | 0.0 | 1.6 | 0.00 | 2.46 | 1.47 | 60 | 1014.0 |
| 20260507000523 | 13 | 0 | 0.0 | 1.6 | 0.00 | 2.46 | 1.47 | 59 | 1013.9 |
| 20260507000037 | 13 | 0 | 0.0 | 4.8 | 0.00 | 2.46 | 1.47 | 58 | 1013.9 |
| 20260506235522 | 13 | 0 | 0.0 | 6.4 | 0.00 | 2.57 | 1.47 | 58 | 1013.8 |
| 20260506235018 | 13 | 0 | 1.6 | 6.4 | 0.00 | 2.57 | 1.47 | 57 | 1013.9 |
| 20260506234535 | 13 | 122 | 1.6 | 6.4 | 0.00 | 2.57 | 1.47 | 57 | 1014.0 |
| 20260506234018 | 13 | 26 | 0.0 | 4.8 | 0.00 | 2.57 | 1.47 | 55 | 1013.9 |
| 20260506233519 | 13 | 342 | 1.6 | 9.7 | 0.00 | 2.57 | 1.47 | 55 | 1013.8 |
| 20260506233040 | 13 | 26 | 1.6 | 14.5 | 0.00 | 2.57 | 1.47 | 55 | 1013.8 |
| 20260506232522 | 13 | 0 | 1.6 | 14.5 | 0.00 | 2.57 | 1.47 | 54 | 1013.7 |
| 20260506232022 | 13 | 41 | 3.2 | 11.3 | 0.00 | 2.57 | 1.47 | 55 | 1013.8 |
| 20260506231543 | 14 | 51 | 3.2 | 8.0 | 0.00 | 2.57 | 1.47 | 54 | 1013.8 |
| 20260506231024 | 14 | 225 | 1.6 | 11.3 | 0.00 | 2.57 | 1.47 | 56 | 1013.8 |
| 20260506230518 | 13 | 0 | 3.2 | 12.9 | 0.00 | 2.57 | 1.47 | 55 | 1013.8 |
| 20260506230039 | 13 | 18 | 4.8 | 12.9 | 0.00 | 2.57 | 1.47 | 56 | 1013.9 |
| 20260506225521 | 13 | 24 | 1.6 | 8.0 | 0.00 | 2.64 | 1.47 | 56 | 1013.8 |
| 20260506225022 | 13 | 334 | 1.6 | 9.7 | 0.00 | 2.64 | 1.47 | 56 | 1013.8 |
| 20260506224536 | 13 | 34 | 3.2 | 12.9 | 0.00 | 2.64 | 1.47 | 56 | 1013.9 |
| 20260506224018 | 13 | 93 | 3.2 | 12.9 | 0.00 | 2.64 | 1.47 | 58 | 1014.0 |
| 20260506223518 | 13 | 120 | 3.2 | 12.9 | 0.00 | 2.64 | 1.47 | 57 | 1014.1 |
| 20260506223036 | 13 | 0 | 1.6 | 4.8 | 0.00 | 2.64 | 1.47 | 56 | 1014.2 |
| 20260506222518 | 13 | 26 | 0.0 | 4.8 | 0.00 | 2.64 | 1.47 | 55 | 1014.2 |
| 20260506222021 | 13 | 266 | 0.0 | 8.0 | 0.00 | 2.64 | 1.47 | 56 | 1014.1 |
| 20260506221535 | 13 | 68 | 1.6 | 8.0 | 0.00 | 2.64 | 1.47 | 55 | 1014.0 |
| 20260506221019 | 13 | 51 | 0.0 | 6.4 | 0.00 | 2.64 | 1.47 | 55 | 1014.2 |
| 20260506220521 | 13 | 301 | 1.6 | 12.9 | 0.00 | 2.64 | 1.47 | 54 | 1014.2 |
| 20260506220035 | 13 | 0 | 1.6 | 12.9 | 0.00 | 2.64 | 1.47 | 54 | 1014.2 |
| 20260506215519 | 13 | 13 | 1.6 | 9.7 | 0.00 | 2.74 | 1.47 | 55 | 1014.3 |
| 20260506215019 | 13 | 90 | 1.6 | 9.7 | 0.00 | 2.74 | 1.47 | 54 | 1014.2 |
| 20260506214535 | 13 | 9 | 3.2 | 16.1 | 0.00 | 2.74 | 1.47 | 54 | 1014.2 |
| 20260506214020 | 13 | 244 | 1.6 | 16.1 | 0.00 | 2.74 | 1.47 | 55 | 1014.1 |
| 20260506213518 | 13 | 13 | 1.6 | 11.3 | 0.00 | 2.74 | 1.47 | 55 | 1014.1 |
| 20260506213037 | 13 | 0 | 1.6 | 6.4 | 0.00 | 2.74 | 1.47 | 55 | 1014.0 |
| 20260506212519 | 13 | 9 | 3.2 | 16.1 | 0.00 | 2.74 | 1.47 | 54 | 1014.0 |
| 20260506212024 | 13 | 346 | 3.2 | 16.1 | 0.00 | 2.74 | 1.47 | 57 | 1013.8 |
| 20260506211544 | 13 | 33 | 8.0 | 16.1 | 0.00 | 2.74 | 1.47 | 55 | 1013.7 |
| 20260506211022 | 13 | 279 | 3.2 | 16.1 | 0.00 | 2.74 | 1.47 | 55 | 1013.7 |
| 20260506210522 | 13 | 18 | 4.8 | 16.1 | 0.00 | 2.74 | 1.47 | 55 | 1013.6 |
| 20260506210039 | 13 | 321 | 6.4 | 16.1 | 0.00 | 2.74 | 1.47 | 56 | 1013.7 |
| 20260506205518 | 13 | 342 | 3.2 | 11.3 | 0.00 | 2.90 | 1.47 | 54 | 1013.6 |
| 20260506205018 | 13 | 68 | 1.6 | 8.0 | 0.00 | 2.90 | 1.47 | 53 | 1013.7 |
| 20260506204538 | 13 | 57 | 1.6 | 8.0 | 0.00 | 2.90 | 1.47 | 54 | 1013.6 |
| 20260506204020 | 13 | 51 | 1.6 | 8.0 | 0.00 | 2.90 | 1.47 | 56 | 1013.6 |
| 20260506203521 | 13 | 26 | 3.2 | 8.0 | 0.00 | 2.90 | 1.47 | 56 | 1013.7 |
| 20260506203043 | 13 | 80 | 3.2 | 12.9 | 0.00 | 2.90 | 1.47 | 55 | 1013.8 |
| 20260506202520 | 13 | 328 | 3.2 | 12.9 | 0.00 | 2.90 | 1.47 | 55 | 1013.8 |
| 20260506202020 | 14 | 57 | 1.6 | 12.9 | 0.00 | 2.90 | 1.47 | 54 | 1013.8 |
| 20260506201536 | 14 | 239 | 1.6 | 14.5 | 0.00 | 2.90 | 1.47 | 55 | 1013.7 |
| 20260506201018 | 14 | 360 | 0.0 | 14.5 | 0.00 | 2.90 | 1.47 | 54 | 1013.7 |
| 20260506200521 | 14 | 257 | 4.8 | 16.1 | 0.00 | 2.90 | 1.47 | 54 | 1013.7 |
| 20260506200044 | 14 | 334 | 6.4 | 17.7 | 0.00 | 2.90 | 1.47 | 53 | 1013.6 |
| 20260506195518 | 15 | 259 | 3.2 | 17.7 | 0.00 | 3.63 | 1.47 | 54 | 1013.6 |
| 20260506195021 | 15 | 332 | 6.4 | 17.7 | 0.00 | 3.63 | 1.47 | 54 | 1013.6 |
| 20260506194540 | 15 | 43 | 1.6 | 9.7 | 0.00 | 3.63 | 1.47 | 53 | 1013.6 |
| 20260506194023 | 15 | 251 | 1.6 | 19.3 | 0.00 | 3.63 | 1.47 | 53 | 1013.6 |
| 20260506193520 | 15 | 340 | 4.8 | 19.3 | 0.00 | 3.63 | 1.47 | 51 | 1013.6 |
| 20260506193040 | 15 | 26 | 9.7 | 19.3 | 0.00 | 3.63 | 1.47 | 53 | 1013.3 |
| 20260506192522 | 15 | 9 | 6.4 | 19.3 | 0.00 | 3.63 | 1.47 | 55 | 1013.3 |
| 20260506192021 | 15 | 288 | 4.8 | 19.3 | 0.00 | 3.63 | 1.47 | 52 | 1013.2 |
| 20260506191537 | 15 | 57 | 6.4 | 20.9 | 0.00 | 3.63 | 1.47 | 54 | 1013.5 |
| 20260506191021 | 15 | 309 | 6.4 | 20.9 | 0.00 | 3.63 | 1.47 | 52 | 1013.4 |
| 20260506190519 | 15 | 0 | 9.7 | 20.9 | 0.00 | 3.63 | 1.47 | 55 | 1013.3 |
| 20260506190036 | 15 | 301 | 9.7 | 19.3 | 0.00 | 3.63 | 1.47 | 55 | 1013.4 |
| 20260506185518 | 15 | 329 | 3.2 | 16.1 | 0.00 | 3.63 | 1.47 | 53 | 1013.5 |
| 20260506185020 | 15 | 265 | 3.2 | 16.1 | 0.00 | 3.63 | 1.47 | 56 | 1013.4 |
| 20260506184539 | 15 | 42 | 8.0 | 16.1 | 0.00 | 3.63 | 1.47 | 54 | 1013.3 |
| 20260506184021 | 15 | 16 | 4.8 | 19.3 | 0.00 | 3.63 | 1.47 | 54 | 1013.2 |
| 20260506183521 | 15 | 55 | 8.0 | 24.1 | 0.00 | 3.63 | 1.47 | 54 | 1013.2 |
| 20260506183040 | 15 | 339 | 11.3 | 24.1 | 0.00 | 3.63 | 1.47 | 52 | 1013.2 |
| 20260506182520 | 15 | 42 | 6.4 | 19.3 | 0.00 | 3.63 | 1.47 | 54 | 1013.3 |
| 20260506182021 | 15 | 23 | 9.7 | 19.3 | 0.00 | 3.63 | 1.47 | 53 | 1013.3 |
| 20260506181538 | 15 | 13 | 4.8 | 19.3 | 0.00 | 3.63 | 1.47 | 53 | 1013.3 |
| 20260506181023 | 15 | 259 | 8.0 | 19.3 | 0.00 | 3.63 | 1.47 | 53 | 1013.2 |
| 20260506180528 | 16 | 329 | 3.2 | 11.3 | 0.00 | 3.63 | 1.47 | 57 | 1013.1 |
| 20260506180046 | 15 | 0 | 3.2 | 19.3 | 0.00 | 3.63 | 1.47 | 58 | 1013.2 |
| 20260506175519 | 15 | 312 | 4.8 | 22.5 | 0.00 | 3.63 | 1.47 | 58 | 1013.4 |
| 20260506175020 | 15 | 57 | 9.7 | 22.5 | 0.00 | 3.63 | 1.47 | 57 | 1013.6 |
| 20260506174535 | 15 | 27 | 8.0 | 20.9 | 0.00 | 3.63 | 1.47 | 57 | 1013.7 |
| 20260506174019 | 15 | 325 | 3.2 | 14.5 | 0.00 | 3.63 | 1.47 | 58 | 1013.6 |
| 20260506173519 | 15 | 346 | 6.4 | 14.5 | 0.00 | 3.63 | 1.47 | 59 | 1013.5 |
| 20260506173037 | 15 | 51 | 4.8 | 14.5 | 0.00 | 3.63 | 1.47 | 58 | 1013.6 |
| 20260506172518 | 15 | 334 | 3.2 | 14.5 | 0.00 | 3.63 | 1.47 | 59 | 1013.7 |
| 20260506172026 | 14 | 38 | 4.8 | 14.5 | 0.00 | 3.63 | 1.47 | 63 | 1013.7 |
| 20260506171547 | 14 | 232 | 3.2 | 9.7 | 0.00 | 3.63 | 1.47 | 58 | 1013.7 |
| 20260506171018 | 14 | 309 | 3.2 | 16.1 | 0.00 | 3.63 | 1.47 | 58 | 1013.7 |
| 20260506170522 | 14 | 47 | 3.2 | 16.1 | 0.00 | 3.63 | 1.47 | 58 | 1013.8 |
| 20260506170040 | 14 | 26 | 4.8 | 12.9 | 0.00 | 3.63 | 1.47 | 60 | 1013.8 |
| 20260506165521 | 14 | 178 | 3.2 | 12.9 | 0.00 | 3.63 | 1.47 | 59 | 1013.8 |
| 20260506165021 | 14 | 9 | 3.2 | 16.1 | 0.00 | 3.63 | 1.47 | 58 | 1013.8 |
| 20260506164537 | 14 | 187 | 4.8 | 16.1 | 0.00 | 3.63 | 1.47 | 59 | 1013.9 |
| 20260506164018 | 14 | 51 | 6.4 | 12.9 | 0.00 | 3.63 | 1.47 | 60 | 1013.8 |
| 20260506163519 | 14 | 26 | 4.8 | 19.3 | 0.00 | 3.63 | 1.47 | 59 | 1013.8 |
| 20260506163045 | 13 | 137 | 1.6 | 19.3 | 0.00 | 3.63 | 1.47 | 59 | 1013.7 |
| 20260506162518 | 13 | 51 | 3.2 | 14.5 | 0.00 | 3.63 | 1.47 | 62 | 1013.7 |
| 20260506162022 | 13 | 252 | 4.8 | 24.1 | 0.00 | 3.63 | 1.47 | 63 | 1013.6 |
| 20260506161547 | 13 | 49 | 9.7 | 24.1 | 0.00 | 3.63 | 1.47 | 63 | 1013.6 |
| 20260506161021 | 13 | 292 | 6.4 | 17.7 | 0.00 | 3.63 | 1.47 | 62 | 1013.7 |
| 20260506160522 | 13 | 274 | 6.4 | 17.7 | 0.00 | 3.63 | 1.47 | 66 | 1013.6 |
| 20260506160034 | 13 | 26 | 3.2 | 12.9 | 0.00 | 3.63 | 1.47 | 65 | 1013.6 |
| 20260506155519 | 13 | 248 | 3.2 | 12.9 | 0.00 | 3.63 | 1.47 | 66 | 1013.7 |
| 20260506155019 | 13 | 282 | 4.8 | 12.9 | 0.00 | 3.63 | 1.47 | 65 | 1013.5 |
| 20260506154540 | 13 | 344 | 6.4 | 12.9 | 0.00 | 3.63 | 1.47 | 68 | 1013.8 |
| 20260506154021 | 12 | 248 | 4.8 | 11.3 | 0.00 | 3.63 | 1.47 | 68 | 1014.1 |
| 20260506153520 | 12 | 93 | 3.2 | 11.3 | 0.00 | 3.63 | 1.47 | 68 | 1014.0 |
| 20260506153038 | 12 | 47 | 3.2 | 16.1 | 0.00 | 3.63 | 1.47 | 69 | 1014.0 |
| 20260506152521 | 12 | 346 | 3.2 | 16.1 | 0.00 | 3.63 | 1.47 | 68 | 1013.9 |
| 20260506152019 | 12 | 59 | 6.4 | 16.1 | 0.00 | 3.63 | 1.47 | 68 | 1013.8 |
| 20260506151536 | 12 | 187 | 3.2 | 16.1 | 0.00 | 3.63 | 1.47 | 69 | 1013.5 |
| 20260506151018 | 11 | 51 | 3.2 | 16.1 | 0.00 | 3.63 | 1.47 | 69 | 1013.3 |
| 20260506150519 | 11 | 41 | 8.0 | 17.7 | 0.00 | 3.63 | 1.47 | 69 | 1013.3 |
| 20260506150035 | 11 | 317 | 6.4 | 19.3 | 0.00 | 3.63 | 1.47 | 72 | 1013.1 |
| 20260506145520 | 11 | 32 | 9.7 | 20.9 | 0.00 | 3.63 | 1.47 | 73 | 1012.8 |
| 20260506145019 | 11 | 33 | 6.4 | 20.9 | 0.00 | 3.63 | 1.47 | 73 | 1012.8 |
| 20260506144539 | 11 | 42 | 11.3 | 19.3 | 0.00 | 3.63 | 1.47 | 75 | 1012.9 |
| 20260506144019 | 11 | 347 | 8.0 | 20.9 | 0.00 | 3.63 | 1.47 | 77 | 1012.8 |
| 20260506143519 | 10 | 22 | 9.7 | 20.9 | 0.00 | 3.63 | 1.47 | 78 | 1012.6 |
| 20260506143038 | 10 | 43 | 11.3 | 19.3 | 0.00 | 3.63 | 1.47 | 81 | 1012.6 |
| 20260506142519 | 10 | 59 | 4.8 | 19.3 | 0.00 | 3.63 | 1.47 | 85 | 1012.7 |
| 20260506142018 | 10 | 331 | 4.8 | 19.3 | 0.00 | 3.63 | 1.47 | 86 | 1012.9 |
| 20260506141535 | 9 | 34 | 4.8 | 17.7 | 0.00 | 3.63 | 1.47 | 88 | 1012.6 |
| 20260506141019 | 9 | 347 | 4.8 | 17.7 | 0.00 | 3.63 | 1.47 | 89 | 1012.6 |
| 20260506140520 | 8 | 20 | 6.4 | 14.5 | 0.00 | 3.63 | 1.47 | 90 | 1012.7 |
| 20260506140043 | 8 | 20 | 4.8 | 14.5 | 0.00 | 3.63 | 1.47 | 91 | 1012.5 |
| 20260506135521 | 8 | 344 | 6.4 | 14.5 | 0.00 | 3.63 | 1.47 | 91 | 1012.7 |
| 20260506135027 | 8 | 289 | 3.2 | 12.9 | 0.00 | 3.63 | 1.47 | 92 | 1012.8 |
| 20260506134606 | 8 | 296 | 3.2 | 16.1 | 0.00 | 3.63 | 1.47 | 92 | 1013.0 |
| 20260506134018 | 8 | 28 | 1.6 | 16.1 | 0.00 | 3.63 | 1.47 | 93 | 1012.8 |
| 20260506133520 | 8 | 11 | 4.8 | 16.1 | 0.00 | 3.63 | 1.47 | 93 | 1012.7 |
| 20260506133034 | 8 | 323 | 1.6 | 14.5 | 0.00 | 3.63 | 1.47 | 93 | 1012.5 |
| 20260506132519 | 7 | 344 | 6.4 | 14.5 | 0.00 | 3.63 | 1.47 | 94 | 1012.4 |
| 20260506132019 | 7 | 9 | 3.2 | 11.3 | 0.00 | 3.63 | 1.47 | 93 | 1012.4 |
| 20260506131543 | 7 | 51 | 3.2 | 14.5 | 0.00 | 3.63 | 1.47 | 94 | 1012.4 |
| 20260506131019 | 7 | 282 | 3.2 | 14.5 | 0.00 | 3.63 | 1.47 | 94 | 1012.4 |
| 20260506130523 | 7 | 13 | 3.2 | 12.9 | 0.00 | 3.63 | 1.47 | 94 | 1012.1 |
| 20260506130036 | 7 | 13 | 3.2 | 14.5 | 0.00 | 3.63 | 1.47 | 94 | 1012.0 |
| 20260506125518 | 7 | 309 | 6.4 | 14.5 | 0.00 | 3.63 | 1.47 | 94 | 1012.1 |
| 20260506125018 | 7 | 350 | 6.4 | 14.5 | 0.00 | 3.63 | 1.47 | 94 | 1012.0 |
| 20260506124536 | 7 | 13 | 3.2 | 9.7 | 0.00 | 3.63 | 1.47 | 94 | 1011.9 |
| 20260506124018 | 7 | 309 | 3.2 | 11.3 | 0.00 | 3.63 | 1.47 | 94 | 1011.6 |
| 20260506123519 | 7 | 0 | 6.4 | 11.3 | 0.00 | 3.63 | 1.47 | 94 | 1011.5 |
| 20260506123042 | 7 | 334 | 3.2 | 14.5 | 0.00 | 3.63 | 1.47 | 94 | 1011.7 |
| 20260506122519 | 7 | 344 | 6.4 | 14.5 | 0.00 | 3.63 | 1.47 | 94 | 1011.7 |
| 20260506122019 | 6 | 10 | 4.8 | 14.5 | 0.00 | 3.63 | 1.47 | 94 | 1011.6 |
| 20260506121539 | 6 | 321 | 4.8 | 14.5 | 0.00 | 3.63 | 1.47 | 94 | 1011.6 |
| 20260506121018 | 6 | 344 | 4.8 | 12.9 | 0.00 | 3.63 | 1.47 | 94 | 1011.7 |
| 20260506120519 | 6 | 31 | 4.8 | 14.5 | 0.00 | 3.63 | 1.47 | 94 | 1011.5 |
| 20260506120039 | 6 | 305 | 1.6 | 14.5 | 0.00 | 3.63 | 1.47 | 94 | 1011.3 |
| 20260506115518 | 6 | 11 | 4.8 | 14.5 | 0.00 | 3.63 | 1.47 | 94 | 1011.2 |
| 20260506115019 | 6 | 288 | 1.6 | 8.0 | 0.00 | 3.63 | 1.47 | 94 | 1011.2 |
| 20260506114543 | 6 | 41 | 3.2 | 8.0 | 0.00 | 3.63 | 1.47 | 94 | 1010.9 |
| 20260506114018 | 6 | 9 | 1.6 | 9.7 | 0.00 | 3.63 | 1.47 | 94 | 1010.6 |
| 20260506113519 | 6 | 15 | 3.2 | 9.7 | 0.00 | 3.63 | 1.47 | 94 | 1010.3 |
| 20260506113038 | 6 | 338 | 3.2 | 8.0 | 0.00 | 3.63 | 1.47 | 94 | 1010.1 |
| 20260506112520 | 6 | 275 | 3.2 | 12.9 | 0.00 | 3.63 | 1.47 | 94 | 1010.1 |
| 20260506112019 | 6 | 51 | 4.8 | 14.5 | 0.00 | 3.63 | 1.47 | 94 | 1010.0 |
| 20260506111538 | 6 | 59 | 3.2 | 14.5 | 0.00 | 3.63 | 1.47 | 94 | 1010.2 |
| 20260506111019 | 6 | 288 | 3.2 | 11.3 | 0.00 | 3.63 | 1.47 | 94 | 1010.3 |
| 20260506110520 | 6 | 93 | 3.2 | 11.3 | 0.00 | 3.63 | 1.47 | 94 | 1010.4 |
| 20260506110037 | 6 | 19 | 1.6 | 8.0 | 0.00 | 3.63 | 1.47 | 94 | 1010.5 |
| 20260506105519 | 6 | 309 | 1.6 | 8.0 | 0.00 | 3.73 | 1.47 | 94 | 1010.0 |
| 20260506105018 | 6 | 11 | 3.2 | 8.0 | 0.00 | 3.73 | 1.47 | 94 | 1010.0 |
| 20260506104536 | 6 | 346 | 1.6 | 4.8 | 0.00 | 3.73 | 1.47 | 94 | 1010.1 |